Location: Asheville, NC
(35.6000°N, 82.5500°W)
Time: 03:19:37
(UTC-04:00)

Vanguard 2 - Pass Details

Date: 08 March 2018
Orbit: 553 x 2939 km, 32.9° (Epoch: 19 June)

Event Time Altitude Azimuth Distance (km) Brightness Sun altitude
Rises 15:58:10 0° 273° (W) 6,785 13.2 28.8°
Reaches altitude 10° 16:02:44 10° 273° (W) 5,760 13.0 28.0°
Maximum altitude 16:20:20 77° 191° (SSW) 2,516 10.7 24.8°
Drops below altitude 10° 16:32:25 10° 108° (ESE) 4,142 10.9 22.6°
Sets 16:35:09 0° 107° (ESE) 4,862 11.2 22.1°
